Weather History for Gwinn, MI

Change the Weather History Date:

Tuesday, January 22, 2013

  Actual Average (KESC) Record (KESC)
Temperature  
Mean Temperature -9 °F -  
Max Temperature 0 °F 26 °F 39 °F (1957)
Min Temperature -18 °F 10 °F -18 °F (2000)
Degree Days  
Heating Degree Days 74    
Moisture  
Dew Point -18 °F    
Average Humidity 72    
Maximum Humidity 78    
Minimum Humidity 55    
Precipitation  
Precipitation 0.00 in - - ()
Sea Level Pressure  
Sea Level Pressure 30.09 in    
Wind  
Wind Speed 6 mph (WSW)    
Max Wind Speed 13 mph    
Max Gust Speed 20 mph    
Visibility 9 miles    
Events      
Averages and records for this station are not official NWS values.
T = Trace of Precipitation, MM = Missing Value Source: NWS Daily Summary

Daily Weather History Graph

Daily Weather History Graph

Search for Another Location

Airport:

Trip Planner

Search our weather history database for the weather conditions in past years. The results will help you decide how hot, cold, wet, or windy it might be!

Date:

Astronomy

Jan. 22, 2013 Rise Set
Actual Time 8:23 AM EST 5:39 PM EST
Civil Twilight 7:50 AM EST 6:12 PM EST
Nautical Twilight 7:13 AM EST 6:49 PM EST
Astronomical Twilight 6:37 AM EST 7:25 PM EST
Moon 1:59 PM EST (1/22) 4:46 AM EST (1/22)
Length of Visible Light 10h 22m
Length of Day
9h 16m
Waxing Gibbous, 82% of the Moon is Illuminated
Jan 22
Waxing Gibbous
Jan 26
Full
Feb 3
Last Quarter
Feb 10
New
Feb 17
First Quarter

Hourly Weather History & Observations

Time (EST) Temp. Windchill Dew Point Humidity Pressure Visibility Wind Dir Wind Speed Gust Speed Precip Events Conditions
12:17 AM -14.3 °F -26.5 °F -20.2 °F 75% 30.04 in 10.0 mi West 4.6 mph - N/A   Mostly Cloudy
12:37 AM -14.8 °F -29.1 °F -20.4 °F 76% 30.04 in 7.0 mi WSW 5.8 mph - N/A   Scattered Clouds
12:56 AM -14.8 °F -29.1 °F -20.6 °F 75% 30.04 in 10.0 mi WSW 5.8 mph - N/A   Clear
1:17 AM -15.7 °F -25.8 °F -21.3 °F 76% 30.04 in 10.0 mi West 3.5 mph - N/A   Clear
1:37 AM -15.9 °F -30.4 °F -21.5 °F 76% 30.04 in 7.0 mi West 5.8 mph - N/A   Clear
1:56 AM -16.4 °F -31.0 °F -22.0 °F 76% 30.04 in 5.0 mi West 5.8 mph - N/A   Haze
2:17 AM -15.9 °F -28.4 °F -21.1 °F 77% 30.05 in 5.0 mi West 4.6 mph - N/A   Haze
2:37 AM -16.2 °F -30.8 °F -22.0 °F 75% 30.05 in 7.0 mi West 5.8 mph - N/A   Scattered Clouds
2:57 AM -16.6 °F -31.3 °F -22.0 °F 76% 30.06 in 10.0 mi West 5.8 mph - N/A   Clear
3:17 AM -15.7 °F -30.2 °F -20.7 °F 78% 30.06 in 10.0 mi WSW 5.8 mph - N/A   Clear
3:36 AM -15.3 °F -29.8 °F -20.9 °F 76% 30.06 in 10.0 mi WSW 5.8 mph - N/A   Clear
3:57 AM -15.9 °F -28.4 °F -21.3 °F 77% 30.06 in 10.0 mi WSW 4.6 mph - N/A   Clear
4:17 AM -16.2 °F -32.5 °F -22.0 °F 75% 30.07 in 10.0 mi West 6.9 mph - N/A   Clear
4:36 AM -15.7 °F -33.3 °F -21.3 °F 76% 30.07 in 10.0 mi West 8.1 mph - N/A   Clear
4:57 AM -15.7 °F -30.2 °F -21.1 °F 77% 30.07 in 10.0 mi West 5.8 mph - N/A   Clear
5:17 AM -15.0 °F -31.0 °F -20.7 °F 75% 30.07 in 10.0 mi West 6.9 mph - N/A   Clear
5:37 AM -14.8 °F -33.5 °F -20.7 °F 75% 30.07 in 10.0 mi West 9.2 mph - N/A   Clear
5:57 AM -15.0 °F -31.0 °F -20.7 °F 75% 30.08 in 10.0 mi West 6.9 mph - N/A   Clear
6:50 AM -16.6 °F -32.9 °F -22.0 °F 76% 30.09 in 10.0 mi West 6.9 mph - N/A   Clear
7:50 AM -18.4 °F -33.4 °F -23.8 °F 76% 30.10 in 10.0 mi West 5.8 mph - N/A   Clear
8:55 AM -16.6 °F -35.7 °F -23.8 °F 70% 30.11 in 10.0 mi West 9.2 mph - N/A   Scattered Clouds
9:55 AM -16.6 °F -35.7 °F -23.8 °F 70% 30.11 in 10.0 mi West 9.2 mph - N/A   Scattered Clouds
10:55 AM -9.4 °F -26.8 °F -16.6 °F 71% 30.12 in 10.0 mi West 9.2 mph - N/A   Clear
11:50 AM -5.8 °F -25.2 °F -14.8 °F 65% 30.14 in 10.0 mi WNW 12.7 mph 18.4 mph N/A   Clear
12:55 PM -2.2 °F -19.9 °F -14.8 °F 55% 30.13 in 10.0 mi WNW 11.5 mph 19.6 mph N/A   Overcast
1:48 PM -2.2 °F -20.7 °F -13.0 °F 60% 30.12 in 5.0 mi NNW 12.7 mph - N/A   Haze
2:55 PM -2.2 °F -19.9 °F -11.2 °F 66% 30.13 in 10.0 mi WNW 11.5 mph - N/A   Overcast
3:50 PM -2.2 °F -18.0 °F -9.4 °F 71% 30.13 in 3.0 mi WNW 9.2 mph - N/A   Haze
4:50 PM -0.4 °F -15.7 °F -11.2 °F 60% 30.13 in 10.0 mi West 9.2 mph - N/A   Overcast
5:50 PM -2.2 °F -15.6 °F -13.0 °F 60% 30.14 in 10.0 mi West 6.9 mph - N/A   Overcast
6:50 PM -2.2 °F -12.5 °F -13.0 °F 60% 30.14 in 10.0 mi WSW 4.6 mph - N/A   Scattered Clouds
7:55 PM -4.0 °F -12.4 °F -13.0 °F 65% 30.15 in 10.0 mi SSW 3.5 mph - N/A   Scattered Clouds
8:50 PM -5.8 °F -18.4 °F -13.0 °F 71% 30.13 in 10.0 mi SSW 5.8 mph - N/A   Scattered Clouds
9:50 PM -7.6 °F -16.5 °F -13.0 °F 77% 30.11 in 10.0 mi SSE 3.5 mph - N/A   Clear
10:17 PM -7.6 °F -20.6 °F -14.4 °F 72% 30.11 in 10.0 mi SW 5.8 mph - N/A   Clear
10:37 PM -7.6 °F -20.6 °F -14.8 °F 71% 30.10 in 10.0 mi SSW 5.8 mph - N/A   Clear
10:57 PM -8.0 °F -21.0 °F -14.8 °F 72% 30.10 in 10.0 mi SW 5.8 mph - N/A   Clear
11:16 PM -8.0 °F -21.0 °F -15.3 °F 70% 30.10 in 10.0 mi WSW 5.8 mph - N/A   Clear
11:37 PM -8.1 °F -22.7 °F -15.5 °F 70% 30.10 in 10.0 mi WSW 6.9 mph - N/A   Clear
11:57 PM -8.9 °F -23.6 °F -16.1 °F 71% 30.10 in 10.0 mi WSW 6.9 mph - N/A   Clear